Meteo Giornale » Osservazioni meteo Repubblica Ceca » Praha-Ruzyne

ore: 07:30 - Osservazioni Meteo Praha-Ruzyne
Lat. 50° 6' N Lon. 14° 15' E Alt. 365 metri s.l.m.

sereno Europe/Prague

12 °C

Sereno

Temp. 24 Ore

11 °C

21 °C

Ovest/Sud-Ovest

11.1 Km/h

Dew point 9 °C

Umidità 81 %

Visibilità  10 Km

Il sole sorge alle ore 05:59

Il sole tramonta alle ore 20:13

Data e Ora Cielo e Fenomeni T °C DP °C Um. % Pres. hPa Vis. km Vento km/h
Oggi h: 07:30 sereno Sereno 12 9 81 1021 10 O/SO 11.1
Oggi h: 07:00 sereno Sereno 12 9 81 1021 10 SO 9.3
Oggi h: 06:30 sereno Sereno 11 9 87 1020 10 O/SO 11.1
Oggi h: 06:06 sereno Sereno 11 9 87 1020 10 O 9.3
Oggi h: 06:00 sereno Sereno 11 9 87 1020 10 O 9.3
Oggi h: 05:30 sereno Sereno 12 9 81 1020 10 O/SO 13
Oggi h: 05:00 sereno Sereno 12 9 81 1020 10 O/SO 13
Oggi h: 04:30 sereno Sereno 12 9 81 1020 10 O/SO 9.3
Oggi h: 04:00 sereno Sereno 13 9 76 1020 10 SO 9.3
Oggi h: 03:30 sereno Sereno 13 9 76 1020 10 SO 11.1
Oggi h: 03:00 sereno Sereno 13 9 76 1020 10 SO 11.1
Oggi h: 02:30 sereno Sereno 13 9 76 1020 10 SO 11.1
Oggi h: 02:00 sereno Sereno 13 9 76 1020 10 O/SO 9.3
Oggi h: 01:30 sereno Sereno 13 9 76 1020 10 O/SO 11.1
Oggi h: 01:00 sereno Sereno 14 10 76 1020 10 O 9.3
Oggi h: 00:30 sereno Sereno 14 10 76 1020 10 O/SO 11.1
Oggi h: 00:00 sereno Sereno 15 10 72 1020 10 O/SO 11.1
Ieri h: 23:30 sereno Sereno 15 10 72 1020 10 O/SO 13
Ieri h: 23:00 sereno Sereno 15 10 72 1020 10 O/SO 11.1
Ieri h: 22:30 sereno Sereno 16 11 72 1020 10 O/SO 13
Ieri h: 22:00 sereno Sereno 17 10 63 1020 10 O/SO 11.1
Ieri h: 21:30 sereno Sereno 17 11 67 1020 10 O 9.3
Ieri h: 21:00 sereno Sereno 17 12 72 1019 10 O 9.3
Ieri h: 20:30 sereno Sereno 18 12 67 1019 10 SO 11.1
Ieri h: 20:00 sereno Sereno 19 12 63 1019 10 O/SO 9.3
Ieri h: 19:30 sereno Sereno 19 11 59 1019 10 O/SO 13
Ieri h: 19:00 sereno Sereno 20 12 59 1019 10 O/SO 14.8
Ieri h: 18:30 poco_nuvoloso Poco Nuvoloso 19 13 68 1018 10 SO 13
Ieri h: 18:00 poco_nuvoloso Poco Nuvoloso 19 13 68 1019 10 S/SO 16.7
Ieri h: 17:30 poco_nuvoloso Poco Nuvoloso 20 11 56 1019 10 O/SO 16.7
Ieri h: 17:00 nuvoloso Nuvoloso 20 12 59 1018 10 O/SO 16.7
Ieri h: 16:30 nuvoloso Nuvoloso 21 11 52 1018 10 O/SO 16.7
Ieri h: 16:00 poco_nuvoloso Poco Nuvoloso 21 12 56 1018 10 O/SO 14.8
Ieri h: 15:30 poco_nuvoloso Poco Nuvoloso 20 12 59 1018 10 SO 14.8
Ieri h: 15:00 poco_nuvoloso Poco Nuvoloso 20 12 59 1019 10 SO 16.7
Ieri h: 14:30 poco_nuvoloso Poco Nuvoloso 19 13 68 1019 10 SO 14.8
Ieri h: 14:00 nuvoloso Nuvoloso 19 13 68 1019 10 O/SO 14.8
Ieri h: 13:30 sereno Sereno 19 13 68 1019 10 SO 16.7
Ieri h: 13:00 nuvoloso Nuvoloso 19 14 72 1019 10 SO 14.8
Ieri h: 12:30 nuvoloso Nuvoloso 18 14 77 1019 10 SO 11.1
Ieri h: 12:00 nuvoloso Nuvoloso 18 14 77 1019 10 O/SO 11.1
Ieri h: 11:30 nuvoloso Nuvoloso 17 14 82 1019 10 SO 14.8
Ieri h: 11:00 poco_nuvoloso Poco Nuvoloso 17 14 82 1019 10 O/SO 18.5
Ieri h: 10:30 poco_nuvoloso Poco Nuvoloso 16 14 87 1019 10 O/SO 16.7
Ieri h: 10:00 poco_nuvoloso Poco Nuvoloso 16 14 87 1018 10 O/SO 20.3
Ieri h: 09:30 poco_nuvoloso Poco Nuvoloso 16 14 87 1018 10 O/SO 20.3
Ieri h: 09:00 poco_nuvoloso Poco Nuvoloso 16 14 87 1018 10 O/SO 25.9
Ieri h: 08:30 poco_nuvoloso Poco Nuvoloso 16 14 87 1017 10 O/SO 20.3
Ieri h: 08:00 poco_nuvoloso Poco Nuvoloso 16 14 87 1017 10 SO 22.2